Time,TemperatureF,DewpointF,PressureIn,WindDirection,WindDirectionDegrees,WindSpeedMPH,WindSpeedGustMPH,Humidity,HourlyPrecipIn,Conditions,Clouds,dailyrainin,SoftwareType,DateUTC
2013-03-14 00:00:00,22.7,11.9,29.79,NW,315,4.0,6.3,63,0.00,,,0.00,WUHU216HW,2013-03-14 05:00:00,
2013-03-14 00:05:00,22.7,11.9,29.79,NW,315,4.7,6.9,63,0.00,,,0.00,WUHU216HW,2013-03-14 05:05:00,
2013-03-14 00:10:00,22.7,11.9,29.79,NW,315,3.4,6.9,63,0.00,,,0.00,WUHU216HW,2013-03-14 05:10:00,
2013-03-14 00:15:00,22.5,11.7,29.79,NW,315,4.0,6.5,63,0.00,,,0.00,WUHU216HW,2013-03-14 05:15:00,
2013-03-14 00:20:00,22.5,11.7,29.79,WNW,293,4.9,4.9,63,0.00,,,0.00,WUHU216HW,2013-03-14 05:20:00,
2013-03-14 00:25:00,22.3,11.6,29.79,NW,315,3.8,5.1,63,0.00,,,0.00,WUHU216HW,2013-03-14 05:25:00,
2013-03-14 00:30:00,22.3,11.6,29.79,NW,315,6.5,6.5,63,0.00,,,0.00,WUHU216HW,2013-03-14 05:30:00,
2013-03-14 00:35:00,22.5,11.7,29.79,NW,315,4.5,6.5,63,0.00,,,0.00,WUHU216HW,2013-03-14 05:35:00,
2013-03-14 00:40:00,22.3,11.6,29.79,NNW,338,4.9,6.5,63,0.00,,,0.00,WUHU216HW,2013-03-14 05:40:00,
2013-03-14 00:45:00,22.3,11.6,29.79,NW,315,5.4,5.6,63,0.00,,,0.00,WUHU216HW,2013-03-14 05:45:00,
2013-03-14 00:50:00,22.1,11.4,29.79,WSW,248,5.1,5.4,63,0.00,,,0.00,WUHU216HW,2013-03-14 05:50:00,
2013-03-14 00:55:00,22.3,11.6,29.79,NW,315,4.7,5.4,63,0.00,,,0.00,WUHU216HW,2013-03-14 05:55:00,
2013-03-14 01:00:00,22.1,11.4,29.79,NW,315,2.2,6.3,63,0.00,,,0.00,WUHU216HW,2013-03-14 06:00:00,
2013-03-14 01:05:00,22.1,11.4,29.79,WNW,293,5.6,6.3,63,0.00,,,0.00,WUHU216HW,2013-03-14 06:05:00,
2013-03-14 01:10:00,22.0,11.3,29.79,WNW,293,4.5,5.6,63,0.00,,,0.00,WUHU216HW,2013-03-14 06:10:00,
2013-03-14 01:15:00,22.0,11.6,29.79,WNW,293,2.2,5.6,64,0.00,,,0.00,WUHU216HW,2013-03-14 06:15:00,
2013-03-14 01:20:00,22.0,11.6,29.79,NW,315,3.6,4.7,64,0.00,,,0.00,WUHU216HW,2013-03-14 06:20:00,
2013-03-14 01:25:00,22.0,11.6,29.79,West,270,4.0,5.1,64,0.00,,,0.00,WUHU216HW,2013-03-14 06:25:00,
2013-03-14 01:30:00,22.0,11.6,29.79,NW,315,4.7,5.4,64,0.00,,,0.00,WUHU216HW,2013-03-14 06:30:00,
2013-03-14 01:35:00,22.0,11.6,29.79,West,270,4.3,5.4,64,0.00,,,0.00,WUHU216HW,2013-03-14 06:35:00,
2013-03-14 01:40:00,22.0,11.6,29.79,WNW,293,4.3,4.9,64,0.00,,,0.00,WUHU216HW,2013-03-14 06:40:00,
2013-03-14 01:45:00,22.0,11.6,29.79,NW,315,2.5,4.7,64,0.00,,,0.00,WUHU216HW,2013-03-14 06:45:00,
2013-03-14 01:50:00,21.8,11.4,29.79,NW,315,0.9,4.7,64,0.00,,,0.00,WUHU216HW,2013-03-14 06:50:00,
2013-03-14 01:55:00,21.6,11.3,29.79,NW,315,4.7,4.7,64,0.00,,,0.00,WUHU216HW,2013-03-14 06:55:00,
2013-03-14 02:00:00,21.6,11.3,29.79,NW,315,4.7,4.7,64,0.00,,,0.00,WUHU216HW,2013-03-14 07:00:00,
2013-03-14 02:05:00,21.4,11.4,29.79,NW,315,3.4,5.4,65,0.00,,,0.00,WUHU216HW,2013-03-14 07:05:00,
2013-03-14 02:10:00,21.2,11.3,29.79,NW,315,2.5,5.4,65,0.00,,,0.00,WUHU216HW,2013-03-14 07:10:00,
2013-03-14 02:15:00,21.2,11.3,29.79,NW,315,4.9,4.9,65,0.00,,,0.00,WUHU216HW,2013-03-14 07:15:00,
2013-03-14 02:20:00,21.2,11.3,29.79,NW,315,3.1,4.9,65,0.00,,,0.00,WUHU216HW,2013-03-14 07:20:00,
2013-03-14 02:25:00,21.1,11.1,29.79,NW,315,3.4,4.9,65,0.00,,,0.00,WUHU216HW,2013-03-14 07:25:00,
2013-03-14 02:30:00,21.1,11.1,29.79,NW,315,3.8,4.7,65,0.00,,,0.00,WUHU216HW,2013-03-14 07:30:00,
2013-03-14 02:35:00,20.9,10.9,29.79,NW,315,3.8,4.7,65,0.00,,,0.00,WUHU216HW,2013-03-14 07:35:00,
2013-03-14 02:40:00,20.9,10.9,29.79,NW,315,4.9,4.9,65,0.00,,,0.00,WUHU216HW,2013-03-14 07:40:00,
2013-03-14 02:45:00,20.9,10.9,29.79,NNW,338,3.4,4.9,65,0.00,,,0.00,WUHU216HW,2013-03-14 07:45:00,
2013-03-14 02:50:00,20.9,11.3,29.79,WNW,293,3.4,4.9,66,0.00,,,0.00,WUHU216HW,2013-03-14 07:50:00,
2013-03-14 02:55:00,20.7,11.1,29.78,WNW,293,3.4,4.7,66,0.00,,,0.00,WUHU216HW,2013-03-14 07:55:00,
2013-03-14 03:00:00,20.7,11.1,29.78,WNW,293,4.3,4.3,66,0.00,,,0.00,WUHU216HW,2013-03-14 08:00:00,
2013-03-14 03:05:00,20.7,11.1,29.78,WNW,293,4.0,4.3,66,0.00,,,0.00,WUHU216HW,2013-03-14 08:05:00,
2013-03-14 03:10:00,20.7,11.1,29.78,WNW,293,4.7,4.7,66,0.00,,,0.00,WUHU216HW,2013-03-14 08:10:00,
2013-03-14 03:15:00,20.7,11.1,29.78,WNW,293,2.2,4.7,66,0.00,,,0.00,WUHU216HW,2013-03-14 08:15:00,
2013-03-14 03:20:00,20.5,10.9,29.78,WNW,293,3.6,4.7,66,0.00,,,0.00,WUHU216HW,2013-03-14 08:20:00,
2013-03-14 10:06:00,27.4,18.2,29.77,SSE,158,1.1,1.1,68,0.00,,,0.00,WUHU216HW,2013-03-14 15:06:00,
2013-03-14 10:11:00,28.4,19.3,29.77,SSW,203,1.1,1.1,68,0.00,,,0.00,WUHU216HW,2013-03-14 15:11:00,
2013-03-14 10:16:00,28.8,19.6,29.77,SSW,203,0.9,1.1,68,0.00,,,0.00,WUHU216HW,2013-03-14 15:16:00,
2013-03-14 10:21:00,29.3,19.7,29.77,SSE,158,2.5,2.5,67,0.00,,,0.00,WUHU216HW,2013-03-14 15:21:00,
2013-03-14 10:26:00,29.7,20.1,29.76,SE,135,2.2,2.5,67,0.00,,,0.00,WUHU216HW,2013-03-14 15:26:00,
2013-03-14 10:31:00,29.9,19.8,29.76,SSE,158,2.5,2.5,66,0.00,,,0.00,WUHU216HW,2013-03-14 15:31:00,
2013-03-14 10:36:00,29.9,19.8,29.77,SSW,203,2.5,2.5,66,0.00,,,0.00,WUHU216HW,2013-03-14 15:36:00,
2013-03-14 10:41:00,30.2,20.2,29.77,SSW,203,1.6,2.5,66,0.00,,,0.00,WUHU216HW,2013-03-14 15:41:00,
2013-03-14 10:46:00,30.2,20.2,29.77,SSW,203,1.6,2.5,66,0.00,,,0.00,WUHU216HW,2013-03-14 15:46:00,
2013-03-14 10:52:00,30.2,20.2,29.77,SSW,203,1.6,1.6,66,0.00,,,0.00,WUHU216HW,2013-03-14 15:52:00,
2013-03-14 10:57:00,29.5,19.5,29.76,SSE,158,1.8,2.0,66,0.00,,,0.00,WUHU216HW,2013-03-14 15:57:00,
2013-03-14 11:02:00,29.5,19.5,29.76,SSE,158,1.8,2.0,66,0.00,,,0.00,WUHU216HW,2013-03-14 16:02:00,
2013-03-14 11:07:00,29.7,19.7,29.76,South,180,2.0,2.0,66,0.00,,,0.00,WUHU216HW,2013-03-14 16:07:00,
2013-03-14 11:12:00,29.9,19.8,29.76,SE,135,1.1,2.2,66,0.00,,,0.00,WUHU216HW,2013-03-14 16:12:00,
2013-03-14 11:17:00,29.9,19.8,29.76,South,180,1.6,2.2,66,0.00,,,0.00,WUHU216HW,2013-03-14 16:17:00,
2013-03-14 11:22:00,29.9,19.4,29.76,SSE,158,1.8,2.2,65,0.00,,,0.00,WUHU216HW,2013-03-14 16:22:00,
2013-03-14 11:27:00,29.9,19.4,29.76,SSE,158,2.0,2.7,65,0.00,,,0.00,WUHU216HW,2013-03-14 16:27:00,
2013-03-14 11:32:00,29.9,19.4,29.75,South,180,2.2,3.4,65,0.00,,,0.00,WUHU216HW,2013-03-14 16:32:00,
2013-03-14 11:37:00,30.1,19.6,29.75,SSE,158,2.5,3.4,65,0.00,,,0.00,WUHU216HW,2013-03-14 16:37:00,
2013-03-14 11:42:00,30.1,19.6,29.75,SSW,203,1.8,2.9,65,0.00,,,0.00,WUHU216HW,2013-03-14 16:42:00,
2013-03-14 11:47:00,29.9,19.1,29.75,SSW,203,2.5,2.5,64,0.00,,,0.00,WUHU216HW,2013-03-14 16:47:00,
2013-03-14 11:52:00,29.9,19.1,29.75,SSW,203,2.7,2.7,64,0.00,,,0.00,WUHU216HW,2013-03-14 16:52:00,
2013-03-14 11:57:00,29.7,19.0,29.75,SW,225,2.5,2.9,64,0.00,,,0.00,WUHU216HW,2013-03-14 16:57:00,
2013-03-14 12:02:00,29.2,18.5,29.75,SSW,203,2.5,4.0,64,0.00,,,0.00,WUHU216HW,2013-03-14 17:02:00,
2013-03-14 12:07:00,29.0,17.6,29.75,SSW,203,4.7,4.9,62,0.00,,,0.00,WUHU216HW,2013-03-14 17:07:00,
2013-03-14 12:12:00,29.0,17.6,29.74,SSW,203,4.7,4.9,62,0.00,,,0.00,WUHU216HW,2013-03-14 17:12:00,
2013-03-14 12:17:00,29.0,17.6,29.74,SSW,203,4.7,4.7,62,0.00,,,0.00,WUHU216HW,2013-03-14 17:17:00,
2013-03-14 12:22:00,29.7,18.6,29.74,SSW,203,7.4,7.4,63,0.00,,,0.00,WUHU216HW,2013-03-14 17:22:00,
2013-03-14 12:27:00,29.7,18.6,29.74,SW,225,6.9,7.4,63,0.00,,,0.00,WUHU216HW,2013-03-14 17:27:00,
2013-03-14 12:32:00,30.1,18.9,29.74,SSW,203,5.8,7.4,63,0.00,,,0.00,WUHU216HW,2013-03-14 17:32:00,
2013-03-14 12:37:00,30.4,18.9,29.74,SSW,203,6.9,6.9,62,0.00,,,0.00,WUHU216HW,2013-03-14 17:37:00,
2013-03-14 12:42:00,30.6,19.1,29.74,SW,225,4.7,6.9,62,0.00,,,0.00,WUHU216HW,2013-03-14 17:42:00,
2013-03-14 12:47:00,30.6,19.1,29.73,SSW,203,5.8,6.9,62,0.00,,,0.00,WUHU216HW,2013-03-14 17:47:00,
2013-03-14 12:52:00,30.8,19.3,29.73,SSW,203,6.3,6.9,62,0.00,,,0.00,WUHU216HW,2013-03-14 17:52:00,
2013-03-14 12:57:00,31.1,18.9,29.72,SSW,203,7.6,7.6,60,0.00,,,0.00,WUHU216HW,2013-03-14 17:57:00,
2013-03-14 13:02:00,31.3,19.4,29.72,SSW,203,7.2,7.6,61,0.00,,,0.00,WUHU216HW,2013-03-14 18:02:00,
2013-03-14 13:07:00,31.5,19.3,29.72,SSW,203,6.7,7.6,60,0.00,,,0.00,WUHU216HW,2013-03-14 18:07:00,
2013-03-14 13:12:00,31.7,19.0,29.72,SW,225,8.5,8.5,59,0.00,,,0.00,WUHU216HW,2013-03-14 18:12:00,
2013-03-14 13:17:00,31.9,19.6,29.72,SSW,203,5.6,8.5,60,0.00,,,0.00,WUHU216HW,2013-03-14 18:17:00,
2013-03-14 13:22:00,32.0,18.9,29.72,SSW,203,7.2,8.5,58,0.00,,,0.00,WUHU216HW,2013-03-14 18:22:00,
2013-03-14 13:27:00,32.0,18.6,29.71,SW,225,2.7,8.3,57,0.00,,,0.00,WUHU216HW,2013-03-14 18:27:00,
2013-03-14 13:33:00,32.0,19.4,29.71,SSW,203,9.4,9.4,59,0.00,,,0.00,WUHU216HW,2013-03-14 18:33:00,
2013-03-14 13:38:00,32.2,19.5,29.71,SSW,203,6.7,9.4,59,0.00,,,0.00,WUHU216HW,2013-03-14 18:38:00,
2013-03-14 13:43:00,32.6,19.5,29.71,SW,225,5.8,9.4,58,0.00,,,0.00,WUHU216HW,2013-03-14 18:43:00,
2013-03-14 13:48:00,32.9,19.7,29.70,SSW,203,7.4,7.4,58,0.00,,,0.00,WUHU216HW,2013-03-14 18:48:00,
2013-03-14 13:53:00,32.6,19.5,29.71,SW,225,5.4,7.4,58,0.00,,,0.00,WUHU216HW,2013-03-14 18:53:00,
2013-03-14 13:58:00,32.0,19.4,29.70,SSW,203,7.2,7.4,59,0.00,,,0.00,WUHU216HW,2013-03-14 18:58:00,
2013-03-14 14:03:00,32.0,19.8,29.70,SSW,203,5.8,8.3,60,0.00,,,0.00,WUHU216HW,2013-03-14 19:03:00,
2013-03-14 14:08:00,31.3,19.8,29.69,SW,225,6.3,8.3,62,0.00,,,0.00,WUHU216HW,2013-03-14 19:08:00,
2013-03-14 14:13:00,31.9,20.3,29.69,SSW,203,8.9,8.9,62,0.00,,,0.00,WUHU216HW,2013-03-14 19:13:00,
2013-03-14 14:18:00,31.9,20.3,29.68,SSW,203,8.9,8.9,62,0.00,,,0.00,WUHU216HW,2013-03-14 19:18:00,
2013-03-14 14:23:00,31.9,20.3,29.68,SSW,203,8.9,8.9,62,0.00,,,0.00,WUHU216HW,2013-03-14 19:23:00,
2013-03-14 14:28:00,32.2,20.7,29.68,SSW,203,7.2,8.9,62,0.00,,,0.00,WUHU216HW,2013-03-14 19:28:00,
2013-03-14 14:33:00,32.0,20.5,29.68,SSW,203,8.7,8.9,62,0.00,,,0.00,WUHU216HW,2013-03-14 19:33:00,
2013-03-14 14:38:00,31.9,21.1,29.68,SW,225,5.8,8.7,64,0.00,,,0.00,WUHU216HW,2013-03-14 19:38:00,
2013-03-14 14:43:00,31.9,21.4,29.67,SSW,203,8.7,8.7,65,0.00,,,0.00,WUHU216HW,2013-03-14 19:43:00,
2013-03-14 14:48:00,32.0,21.2,29.67,SSW,203,8.5,8.7,64,0.00,,,0.00,WUHU216HW,2013-03-14 19:48:00,
2013-03-14 14:53:00,32.4,22.3,29.67,SSW,203,7.4,8.7,66,0.00,,,0.00,WUHU216HW,2013-03-14 19:53:00,
2013-03-14 14:58:00,32.4,22.0,29.67,SSW,203,6.9,8.5,65,0.00,,,0.00,WUHU216HW,2013-03-14 19:58:00,
2013-03-14 15:03:00,32.8,22.2,29.67,SSW,203,6.9,7.4,65,0.00,,,0.00,WUHU216HW,2013-03-14 20:03:00,
2013-03-14 15:08:00,32.6,22.4,29.66,SW,225,6.3,6.9,66,0.00,,,0.00,WUHU216HW,2013-03-14 20:08:00,
2013-03-14 15:13:00,32.8,23.0,29.66,SW,225,6.3,7.4,67,0.00,,,0.00,WUHU216HW,2013-03-14 20:13:00,
2013-03-14 15:18:00,32.8,23.0,29.66,SW,225,6.3,7.4,67,0.00,,,0.00,WUHU216HW,2013-03-14 20:18:00,
2013-03-14 15:23:00,33.1,23.3,29.66,SSW,203,7.2,7.2,67,0.00,,,0.00,WUHU216HW,2013-03-14 20:23:00,
2013-03-14 15:28:00,33.1,23.3,29.66,SSW,203,3.8,7.2,67,0.00,,,0.00,WUHU216HW,2013-03-14 20:28:00,
2013-03-14 15:33:00,33.1,23.7,29.67,SSW,203,4.0,7.2,68,0.00,,,0.00,WUHU216HW,2013-03-14 20:33:00,
2013-03-14 15:38:00,33.3,23.5,29.67,SW,225,3.4,4.0,67,0.00,,,0.00,WUHU216HW,2013-03-14 20:38:00,
2013-03-14 15:43:00,33.3,23.5,29.68,WSW,248,2.0,4.0,67,0.00,,,0.00,WUHU216HW,2013-03-14 20:43:00,
2013-03-14 15:48:00,32.8,23.7,29.67,SW,225,3.4,3.4,69,0.00,,,0.00,WUHU216HW,2013-03-14 20:48:00,
2013-03-14 15:53:00,32.8,24.0,29.67,SW,225,3.4,3.4,70,0.00,,,0.00,WUHU216HW,2013-03-14 20:53:00,
2013-03-14 15:58:00,32.9,23.5,29.68,SW,225,2.5,3.4,68,0.00,,,0.00,WUHU216HW,2013-03-14 20:58:00,
2013-03-14 16:03:00,32.9,23.5,29.69,SW,225,1.3,4.5,68,0.00,,,0.00,WUHU216HW,2013-03-14 21:03:00,
2013-03-14 16:08:00,33.3,24.2,29.69,SW,225,2.7,4.5,69,0.00,,,0.00,WUHU216HW,2013-03-14 21:08:00,
2013-03-14 16:13:00,33.8,24.3,29.68,SW,225,3.1,5.8,68,0.00,,,0.00,WUHU216HW,2013-03-14 21:13:00,
2013-03-14 16:18:00,34.0,24.1,29.68,South,180,4.0,5.8,67,0.00,,,0.00,WUHU216HW,2013-03-14 21:18:00,
2013-03-14 16:23:00,33.8,23.6,29.69,SW,225,4.3,4.7,66,0.00,,,0.00,WUHU216HW,2013-03-14 21:23:00,
2013-03-14 16:28:00,33.3,23.9,29.69,SSW,203,2.2,4.7,68,0.00,,,0.00,WUHU216HW,2013-03-14 21:28:00,
2013-03-14 16:33:00,32.9,23.9,29.69,SSW,203,3.4,4.3,69,0.00,,,0.00,WUHU216HW,2013-03-14 21:33:00,
2013-03-14 16:38:00,32.9,23.9,29.69,WSW,248,3.4,3.4,69,0.00,,,0.00,WUHU216HW,2013-03-14 21:38:00,
2013-03-14 16:43:00,32.8,23.7,29.69,SW,225,1.8,3.4,69,0.00,,,0.00,WUHU216HW,2013-03-14 21:43:00,
2013-03-14 16:48:00,32.8,23.7,29.69,WSW,248,2.5,3.4,69,0.00,,,0.00,WUHU216HW,2013-03-14 21:48:00,
2013-03-14 16:53:00,32.4,23.8,29.69,WSW,248,4.3,4.9,70,0.00,,,0.00,WUHU216HW,2013-03-14 21:53:00,
2013-03-14 16:58:00,32.4,23.8,29.68,WSW,248,3.4,4.9,70,0.00,,,0.00,WUHU216HW,2013-03-14 21:58:00,
2013-03-14 17:03:00,32.4,23.8,29.68,SW,225,4.9,5.1,70,0.00,,,0.00,WUHU216HW,2013-03-14 22:03:00,
2013-03-14 17:08:00,32.6,23.9,29.68,WSW,248,3.1,5.1,70,0.00,,,0.00,WUHU216HW,2013-03-14 22:08:00,
2013-03-14 17:13:00,32.6,24.2,29.67,WSW,248,5.4,5.4,71,0.00,,,0.00,WUHU216HW,2013-03-14 22:13:00,
2013-03-14 17:18:00,33.1,24.4,29.66,WSW,248,1.8,5.4,70,0.00,,,0.00,WUHU216HW,2013-03-14 22:18:00,
2013-03-14 17:23:00,33.3,24.2,29.66,WSW,248,4.5,5.4,69,0.00,,,0.00,WUHU216HW,2013-03-14 22:23:00,
2013-03-14 17:28:00,33.1,24.4,29.65,SSW,203,4.7,5.4,70,0.00,,,0.00,WUHU216HW,2013-03-14 22:28:00,
2013-03-14 17:33:00,32.8,24.4,29.64,SSW,203,3.8,5.8,71,0.00,,,0.00,WUHU216HW,2013-03-14 22:33:00,
2013-03-14 17:38:00,32.8,24.4,29.64,SSW,203,6.9,6.9,71,0.00,,,0.00,WUHU216HW,2013-03-14 22:38:00,
2013-03-14 17:43:00,32.9,24.6,29.63,SSW,203,4.9,6.9,71,0.00,,,0.00,WUHU216HW,2013-03-14 22:43:00,
2013-03-14 17:48:00,32.9,24.6,29.63,SW,225,6.3,6.9,71,0.00,,,0.00,WUHU216HW,2013-03-14 22:48:00,
2013-03-14 17:53:00,32.2,23.9,29.63,SSW,203,3.1,6.3,71,0.00,,,0.00,WUHU216HW,2013-03-14 22:53:00,
2013-03-14 17:58:00,31.9,23.9,29.63,SSW,203,6.0,6.3,72,0.00,,,0.00,WUHU216HW,2013-03-14 22:58:00,
2013-03-14 18:03:00,31.5,23.9,29.63,SSW,203,3.8,6.3,73,0.00,,,0.00,WUHU216HW,2013-03-14 23:03:00,
2013-03-14 18:08:00,31.3,23.7,29.63,SSW,203,4.7,6.3,73,0.00,,,0.00,WUHU216HW,2013-03-14 23:08:00,
2013-03-14 18:13:00,31.3,23.9,29.63,SW,225,5.1,6.0,74,0.00,,,0.00,WUHU216HW,2013-03-14 23:13:00,
2013-03-14 18:18:00,31.1,24.1,29.63,SSW,203,4.7,5.4,75,0.00,,,0.00,WUHU216HW,2013-03-14 23:18:00,
2013-03-14 18:23:00,31.0,24.3,29.64,SW,225,4.7,5.4,76,0.00,,,0.00,WUHU216HW,2013-03-14 23:23:00,
2013-03-14 18:28:00,30.8,24.1,29.64,SSW,203,4.7,5.1,76,0.00,,,0.00,WUHU216HW,2013-03-14 23:28:00,
2013-03-14 18:33:00,30.6,24.0,29.64,SW,225,4.9,4.9,76,0.00,,,0.00,WUHU216HW,2013-03-14 23:33:00,
2013-03-14 18:38:00,30.2,23.6,29.64,SW,225,3.6,4.9,76,0.00,,,0.00,WUHU216HW,2013-03-14 23:38:00,
2013-03-14 18:43:00,30.1,23.7,29.65,SW,225,4.7,4.9,77,0.00,,,0.00,WUHU216HW,2013-03-14 23:43:00,
2013-03-14 18:48:00,29.9,23.5,29.64,SW,225,3.4,4.7,77,0.00,,,0.00,WUHU216HW,2013-03-14 23:48:00,
2013-03-14 18:53:00,29.9,23.5,29.64,SSW,203,3.6,5.8,77,0.00,,,0.00,WUHU216HW,2013-03-14 23:53:00,
2013-03-14 18:58:00,29.9,23.5,29.64,SW,225,3.8,5.8,77,0.00,,,0.00,WUHU216HW,2013-03-14 23:58:00,
2013-03-14 19:03:00,29.7,23.3,29.64,SSW,203,2.9,4.3,77,0.00,,,0.00,WUHU216HW,2013-03-15 00:03:00,
2013-03-14 19:08:00,29.7,23.3,29.64,SW,225,2.5,4.3,77,0.00,,,0.00,WUHU216HW,2013-03-15 00:08:00,
2013-03-14 19:13:00,29.5,23.8,29.64,SSW,203,1.8,2.9,79,0.00,,,0.00,WUHU216HW,2013-03-15 00:13:00,
2013-03-14 19:18:00,29.5,23.8,29.64,SW,225,4.0,4.0,79,0.00,,,0.00,WUHU216HW,2013-03-15 00:18:00,
2013-03-14 19:23:00,29.5,23.8,29.63,SSW,203,3.8,4.0,79,0.00,,,0.00,WUHU216HW,2013-03-15 00:23:00,
2013-03-14 19:28:00,29.5,23.8,29.62,SSW,203,5.4,5.4,79,0.00,,,0.00,WUHU216HW,2013-03-15 00:28:00,
2013-03-14 19:33:00,29.5,23.8,29.63,SSW,203,4.3,5.4,79,0.00,,,0.00,WUHU216HW,2013-03-15 00:33:00,
2013-03-14 19:38:00,29.5,24.1,29.63,SSW,203,4.0,5.4,80,0.00,,,0.00,WUHU216HW,2013-03-15 00:38:00,
2013-03-14 19:43:00,29.5,24.4,29.63,SW,225,5.4,5.4,81,0.00,,,0.00,WUHU216HW,2013-03-15 00:43:00,
2013-03-14 19:48:00,29.3,24.2,29.62,SW,225,4.5,5.4,81,0.00,,,0.00,WUHU216HW,2013-03-15 00:48:00,
2013-03-14 19:53:00,29.3,24.2,29.62,SW,225,3.4,5.4,81,0.00,,,0.00,WUHU216HW,2013-03-15 00:53:00,
2013-03-14 19:58:00,29.2,24.0,29.62,SW,225,2.9,4.5,81,0.00,,,0.00,WUHU216HW,2013-03-15 00:58:00,
2013-03-14 20:03:00,29.2,24.3,29.61,SSW,203,4.0,4.0,82,0.00,,,0.00,WUHU216HW,2013-03-15 01:03:00,
2013-03-14 20:08:00,29.2,24.7,29.61,SSW,203,2.9,4.0,83,0.00,,,0.00,WUHU216HW,2013-03-15 01:08:00,
2013-03-14 20:13:00,29.2,24.7,29.61,SSW,203,4.3,4.3,83,0.00,,,0.00,WUHU216HW,2013-03-15 01:13:00,
2013-03-14 20:18:00,29.0,24.5,29.61,SSW,203,4.0,5.4,83,0.00,,,0.00,WUHU216HW,2013-03-15 01:18:00,
2013-03-14 20:23:00,29.0,25.0,29.61,SSW,203,5.8,5.8,85,0.00,,,0.00,WUHU216HW,2013-03-15 01:23:00,
2013-03-14 20:28:00,29.2,24.9,29.60,SSW,203,4.7,5.8,84,0.00,,,0.00,WUHU216HW,2013-03-15 01:28:00,
2013-03-14 20:33:00,29.0,25.0,29.60,SSW,203,5.4,5.8,85,0.00,,,0.00,WUHU216HW,2013-03-15 01:33:00,
2013-03-14 20:38:00,29.0,24.8,29.60,SW,225,4.9,5.6,84,0.00,,,0.00,WUHU216HW,2013-03-15 01:38:00,
2013-03-14 20:43:00,29.0,25.0,29.60,SSW,203,5.1,5.4,85,0.00,,,0.00,WUHU216HW,2013-03-15 01:43:00,
2013-03-14 20:48:00,28.8,24.8,29.59,SSW,203,4.0,5.1,85,0.00,,,0.00,WUHU216HW,2013-03-15 01:48:00,
2013-03-14 20:53:00,28.8,24.8,29.59,SSW,203,3.4,5.1,85,0.00,,,0.00,WUHU216HW,2013-03-15 01:53:00,
2013-03-14 20:58:00,28.8,24.8,29.59,SSW,203,4.9,5.8,85,0.00,,,0.00,WUHU216HW,2013-03-15 01:58:00,
2013-03-14 21:03:00,28.6,24.7,29.59,SW,225,5.4,5.8,85,0.00,,,0.00,WUHU216HW,2013-03-15 02:03:00,
2013-03-14 21:08:00,28.6,24.9,29.59,SW,225,2.7,5.4,86,0.00,,,0.00,WUHU216HW,2013-03-15 02:08:00,
2013-03-14 21:13:00,28.6,24.9,29.59,SW,225,2.5,5.4,86,0.00,,,0.00,WUHU216HW,2013-03-15 02:13:00,
2013-03-14 21:18:00,28.6,24.9,29.59,WSW,248,5.1,5.1,86,0.00,,,0.00,WUHU216HW,2013-03-15 02:18:00,
2013-03-14 21:23:00,28.4,24.8,29.58,SW,225,3.6,5.1,86,0.00,,,0.00,WUHU216HW,2013-03-15 02:23:00,
2013-03-14 21:28:00,28.3,24.6,29.59,SW,225,4.5,5.1,86,0.00,,,0.00,WUHU216HW,2013-03-15 02:28:00,
2013-03-14 21:33:00,28.3,24.8,29.58,SSW,203,3.1,4.5,87,0.00,,,0.00,WUHU216HW,2013-03-15 02:33:00,
2013-03-14 21:38:00,28.3,24.6,29.58,SW,225,3.4,4.5,86,0.00,,,0.00,WUHU216HW,2013-03-15 02:38:00,
2013-03-14 21:43:00,28.3,24.6,29.58,SW,225,1.1,3.6,86,0.00,,,0.00,WUHU216HW,2013-03-15 02:43:00,
2013-03-14 21:48:00,28.3,24.8,29.58,SW,225,2.2,3.4,87,0.00,,,0.00,WUHU216HW,2013-03-15 02:48:00,
2013-03-14 21:53:00,28.3,24.8,29.58,WSW,248,1.8,4.0,87,0.00,,,0.00,WUHU216HW,2013-03-15 02:53:00,
2013-03-14 21:58:00,28.1,24.7,29.58,SW,225,1.8,4.0,87,0.00,,,0.00,WUHU216HW,2013-03-15 02:58:00,
2013-03-14 22:03:00,28.1,24.7,29.59,SW,225,1.8,1.8,87,0.00,,,0.00,WUHU216HW,2013-03-15 03:03:00,
2013-03-14 22:08:00,28.1,24.7,29.58,SW,225,1.8,1.8,87,0.00,,,0.00,WUHU216HW,2013-03-15 03:08:00,
2013-03-14 22:13:00,27.7,24.3,29.58,SW,225,1.6,1.8,87,0.00,,,0.00,WUHU216HW,2013-03-15 03:13:00,
2013-03-14 22:18:00,27.5,23.9,29.58,SW,225,2.2,2.5,86,0.00,,,0.00,WUHU216HW,2013-03-15 03:18:00,
2013-03-14 22:23:00,27.5,24.1,29.58,SW,225,2.2,2.5,87,0.00,,,0.00,WUHU216HW,2013-03-15 03:23:00,
2013-03-14 22:28:00,27.5,24.1,29.58,WSW,248,1.8,2.2,87,0.00,,,0.00,WUHU216HW,2013-03-15 03:28:00,
2013-03-14 22:33:00,27.4,24.3,29.58,WSW,248,2.0,2.2,88,0.00,,,0.00,WUHU216HW,2013-03-15 03:33:00,
2013-03-14 22:38:00,27.4,23.9,29.58,SW,225,0.9,2.0,87,0.00,,,0.00,WUHU216HW,2013-03-15 03:38:00,
2013-03-14 22:43:00,27.4,24.3,29.58,SW,225,1.6,2.0,88,0.00,,,0.00,WUHU216HW,2013-03-15 03:43:00,
2013-03-14 22:48:00,27.4,23.9,29.58,SW,225,1.8,1.8,87,0.00,,,0.00,WUHU216HW,2013-03-15 03:48:00,
2013-03-14 22:53:00,27.2,23.5,29.58,SW,225,1.8,2.2,86,0.00,,,0.00,WUHU216HW,2013-03-15 03:53:00,
2013-03-14 22:58:00,27.2,24.1,29.58,SW,225,3.8,3.8,88,0.00,,,0.00,WUHU216HW,2013-03-15 03:58:00,
2013-03-14 23:00:00,27.0,24.0,29.58,SW,225,3.8,3.8,88,0.00,,,0.00,WUHU216HW,2013-03-15 04:00:00,
2013-03-14 23:05:00,27.0,24.2,29.58,WSW,248,2.5,3.8,89,0.00,,,0.00,WUHU216HW,2013-03-15 04:05:00,
2013-03-14 23:10:00,27.0,24.5,29.58,SW,225,3.1,4.3,90,0.00,,,0.00,WUHU216HW,2013-03-15 04:10:00,
2013-03-14 23:15:00,27.0,24.2,29.57,SW,225,2.2,4.3,89,0.00,,,0.00,WUHU216HW,2013-03-15 04:15:00,
2013-03-14 23:20:00,27.0,24.2,29.57,SW,225,5.4,5.4,89,0.00,,,0.00,WUHU216HW,2013-03-15 04:20:00,
2013-03-14 23:25:00,27.0,24.5,29.57,WSW,248,4.0,5.4,90,0.00,,,0.00,WUHU216HW,2013-03-15 04:25:00,
2013-03-14 23:30:00,27.0,24.5,29.57,SSW,203,3.6,5.4,90,0.00,,,0.00,WUHU216HW,2013-03-15 04:30:00,
2013-03-14 23:35:00,26.8,24.3,29.57,WSW,248,5.8,5.8,90,0.00,,,0.00,WUHU216HW,2013-03-15 04:35:00,
2013-03-14 23:40:00,26.8,24.6,29.56,SW,225,5.4,5.8,91,0.00,,,0.00,WUHU216HW,2013-03-15 04:40:00,
2013-03-14 23:45:00,26.8,24.6,29.56,SW,225,4.7,5.8,91,0.00,,,0.00,WUHU216HW,2013-03-15 04:45:00,
2013-03-14 23:50:00,26.8,24.6,29.56,WSW,248,5.8,5.8,91,0.00,,,0.00,WUHU216HW,2013-03-15 04:50:00,
2013-03-14 23:55:00,26.8,24.6,29.56,SW,225,4.7,5.8,91,0.00,,,0.00,WUHU216HW,2013-03-15 04:55:00,